SL-8 DEB, 1590

Orbit data source: Space-Track

SL-8 DEB, 1590 is space debris in LEO originally from a launch on Sat, 18 Sep 1965 UTC launched from the Tyuratam Missile And Space Complex (TTMTR). Debris objects in space refer to the collection of defunct objects orbiting the Earth. Examples of debris include non-operational satellites, rocket bodies, and fragments generated from explosions, collisions, or faulty payload assembly.

Loading next visibility...
Identifier
1590, 1965-073G
Orbit
LEO
Country
Flag of CISCIS
Related business
Manufacturer
Unknown
Mission
Spacecraft
Bus & Motor
Unknown
Mass
Unknown
Launch date (UTC)
1965-09-18 (61 years ago)
Launch vehicle
Unknown
Launch site
Tyuratam Missile And Space Complex (TTMTR)
Object type
Payload
Rocket body
Debris
Shape & HBR
Unknown shape, 0.1 m
Radar Cross Section
Medium (>0.1 m² and <1 m²)

Expand to show TLE details & history
Last TLE update: 3 days ago

TLE from 3 days ago
0 SL-8 DEB
1 01590U 65073G   26172.77997887  .00000431  00000-0  32750-2 0  9993
2 01590  56.0841  83.1161 0177401  43.4943 351.6422 12.49852367758918
Epoch: 2026-06-21T18:43Z
TLE epoch observation values (Epoch: 2026-06-21T18:43:10.174Z)
Latitude
28.36786°
Longitude
-86.47484°
Altitude
1,329.193 km
Speed
7.259 km/s
True Right ascension
06h 57m 10s
True Declination
28° 14' 06"
Sunlit
Object was in daylight at epoch
Visualization orbit readout
Latitude
Unknown
Longitude
Unknown
Altitude
Unknown
Speed
Unknown
Apparent Right ascension
Unknown
Apparent Declination
Unknown
Sunlit
N/A
Visualization observer readout
Local Sidereal Time
18:09:27
Azimuth
Unknown
Elevation
Unknown
Doppler factor
Unknown
Orbital elements
Apogee altitude
1,604.069 km
Perigee altitude
1,325.795 km
Semi-major axis
7,843.069 km
Eccentricity
0.01774
Inclination
56.0841°
RAAN
83.1161°
Arg. of periapsis
43.4943°
True anomaly
351.34009°
Mean anomaly
351.6422°
Eccentric anomaly
351.49182°
Mean motion
3.12474 °/min
Orbital period
115.21 mins
BSTAR
0.003275
Loading maneuver chart data...
Computing Atmospheric mass density...
Loading historical data...
Loading historical data...
Loading historical data...
Loading historical data...
Loading historical data...
Loading historical data...
Loading historical data...

Documentation

Showing up to 5 results
|